Regional Weather Roundup
Issued by NWS Northern Indiana

Home | Current Version | Previous Version | Graphics & Text | Print | Product List | Glossary On
Versions: 1 2 3 4 5 6 7 8 9 10 11 12 13 14 15 16 17 18 19 20 21 22 23 24 25 26 27 28 29 30 31 32 33 34 35 36 37 38 39 40 41 42 43 44 45 46 47 48 49 50
000
ASUS43 KIWX 022100
RWRIWX

KIWX WEATHER ROUNDUP
NATIONAL WEATHER SERVICE NORTHERN INDIANA
500 PM EDT MON MAY 02 2016

NOTE: "FAIR" INDICATES FEW OR NO CLOUDS BELOW 12,000 FEET WITH NO
SIGNIFICANT WEATHER AND/OR OBSTRUCTIONS TO VISIBILITY.

* THESE STATIONS ARE NOT UNDER NWS QUALITY CONTROL. THEY ALSO MAY NOT
  REPORT WEATHER SUCH AS PRECIPITATION OR FOG.

INZ001>027-022200-
NORTHERN INDIANA

CITY           SKY/WX    TMP DP  RH WIND       PRES   REMARKS
GARY*          MOSUNNY   52  45  76 N8G22     30.05F
SOUTH BEND     CLOUDY    52  44  74 N8        30.02S
ELKHART*       CLOUDY    54  48  82 E8        30.01F
GOSHEN         CLOUDY    51  46  83 NE9       30.00F
ANGOLA*        MOSUNNY   48  39  71 CALM      30.01F
FORT WAYNE     CLOUDY    52  47  83 NE9       29.99F
PERU/GRISSOM   CLOUDY    54  51  89 NE9       29.97F

$$
INZ028>050-022200-
CENTRAL INDIANA

CITY           SKY/WX    TMP DP  RH WIND       PRES   REMARKS
LAFAYETTE      CLOUDY    53  47  79 N8        29.98F
KOKOMO*        CLOUDY    54  46  76 NE8       29.97F
MUNCIE*        CLOUDY    55  50  83 NE7       29.96F
INDIANAPOLIS   DRIZZLE   54  50  86 NW7       29.95F

$$
MIZ043>046-050>051-056>058-064>065-071>073-077>080-022200-
SOUTHWEST LOWER MICHIGAN

CITY           SKY/WX    TMP DP  RH WIND       PRES   REMARKS
BATTLE CREEK   CLOUDY    53  43  68 NE6       30.02F
BENTON HARBOR  CLOUDY    50  38  63 VRB5      30.03F
COLDWATER*     CLOUDY    50  48  93 NE5       30.01F
HILLSDALE*     DRIZZLE   48  46  91 NE3       30.01F
HOLLAND        CLOUDY    51  40  65 W6        30.04S
GRAND RAPIDS   CLOUDY    56  42  59 E5        30.03F
KALAMAZOO      CLOUDY    55  43  63 VRB5      30.02F
STURGIS*       CLOUDY    49  46  91 NE6       30.00F
THREE RIVERS*  CLOUDY    52  46  79 E6        30.02F

$$
OHZ001>008-015>018-024>025-022200-
NORTHWEST OHIO

CITY           SKY/WX    TMP DP  RH WIND       PRES   REMARKS
DEFIANCE       CLOUDY    52  47  83 N6        30.00S
FINDLAY        CLOUDY    54  44  69 NE10      29.97F
TOLEDO EXPRESS CLOUDY    51  45  79 NE6       30.00F
TOLEDO METCALF CLOUDY    53  45  74 NE9       30.00F
LIMA           CLOUDY    51  47  86 NE7       29.98F

$$
AND FOR LAKE MICHIGAN COASTAL AND OPEN LAKE BUOY OBSERVATIONS

STATION/POSITION TEMP    WIND        PRES    VSBY  WAVE
                 AIR SEA DIR/SP/G                  HT/PER
                 (F)     (DEG/KT/KT) (MB)    (MI)  (FT/S)
CALUMET HARBOR    47     350/ 12/ 16 1017.1F
MICHIGAN CITY     44     360/  7/  8   N/A
BURNS HARBOR      45      10/ 10/ 12 1017.6F
SAINT JOSEPH      48     350/  6/  9 1017.6F
SOUTH LAKE BUOY   42 41  310/  2/  4 1018.0          1/ 3
4 MI NW BRIDGMAN  46 48                N/A           2/ 4

$$
&&



USA.gov is the U.S. government's official web portal to all federal, state and local government web resources and services.